• In Austria
  • List of Countries
  • For 7 days
  • Water Temperature
  • Satellite Maps
  • Weather Map
  • News
  • Weather Widgets
  • user-avatar
    Login

    Hourly Weather Uige

    Today, 14 August, Tuesday

    Time Temperature Precipitation Wind Pressure Humidity
    00:00 +23°C° 0 mm 2 mps 692 mmHg 75%
    01:00 +21°C° 0 mm 2 mps 692 mmHg 82%
    02:00 +21°C° 0 mm 2 mps 692 mmHg 82%
    03:00 +21°C° 0 mm 2 mps 692 mmHg 83%
    04:00 +21°C° 0 mm 2 mps 692 mmHg 83%
    05:00 +20°C° 0 mm 2 mps 692 mmHg 83%
    06:00 +20°C° 0 mm 2 mps 693 mmHg 82%
    07:00 +20°C° 0 mm 2 mps 693 mmHg 82%
    08:00 +24°C° 0 mm 1 mps 693 mmHg 69%
    09:00 +27°C° 0 mm 1 mps 694 mmHg 55%
    10:00 +30°C° 0 mm 1 mps 695 mmHg 42%
    11:00 +33°C° 0 mm 1 mps 694 mmHg 35%
    12:00 +36°C° 0 mm 1 mps 694 mmHg 27%
    13:00 +40°C° 0 mm 1 mps 694 mmHg 20%
    14:00 +39°C° 0 mm 1 mps 693 mmHg 21%
    15:00 +36°C° 0 mm 1 mps 692 mmHg 23%
    16:00 +35°C° 0 mm 1 mps 691 mmHg 24%
    17:00 +34°C° 0 mm 2 mps 692 mmHg 28%
    18:00 +31°C° 0 mm 2 mps 692 mmHg 33%
    19:00 +30°C° 0 mm 2 mps 692 mmHg 37%
    20:00 +28°C° 0 mm 2 mps 693 mmHg 45%
    21:00 +27°C° 0 mm 2 mps 693 mmHg 54%
    22:00 +25°C° 0 mm 2 mps 694 mmHg 62%
    23:00 +24°C° 0 mm 3 mps 694 mmHg 68%

    Tomorrow, 15 August, Wednesday

    Time Temperature Precipitation Wind Pressure Humidity
    00:00 +22°C° 0 mm 3 mps 694 mmHg 74%
    01:00 +21°C° 0 mm 3 mps 694 mmHg 80%
    02:00 +21°C° 0 mm 3 mps 693 mmHg 80%
    03:00 +21°C° 0 mm 2 mps 693 mmHg 80%
    04:00 +21°C° 0 mm 2 mps 693 mmHg 80%
    05:00 +20°C° 0 mm 2 mps 693 mmHg 80%
    06:00 +20°C° 0 mm 2 mps 693 mmHg 80%
    07:00 +20°C° 0 mm 2 mps 693 mmHg 81%
    08:00 +24°C° 0 mm 2 mps 694 mmHg 69%
    09:00 +27°C° 0 mm 2 mps 695 mmHg 58%
    10:00 +29°C° 0 mm 2 mps 695 mmHg 47%
    11:00 +31°C° 0 mm 2 mps 695 mmHg 42%
    12:00 +34°C° 0 mm 2 mps 694 mmHg 36%
    13:00 +36°C° 0 mm 2 mps 694 mmHg 31%
    14:00 +35°C° 0 mm 2 mps 693 mmHg 33%
    15:00 +34°C° 0 mm 2 mps 692 mmHg 34%
    16:00 +32°C° 0 mm 2 mps 691 mmHg 36%
    17:00 +31°C° 0.1 mm 2 mps 692 mmHg 39%
    18:00 +30°C° 0.1 mm 1 mps 692 mmHg 43%
    19:00 +28°C° 0.1 mm 1 mps 692 mmHg 46%
    20:00 +27°C° 0.1 mm 1 mps 693 mmHg 51%
    21:00 +26°C° 0.1 mm 1 mps 693 mmHg 56%
    22:00 +25°C° 0.1 mm 2 mps 693 mmHg 61%
    23:00 +24°C° 0 mm 2 mps 693 mmHg 65%

    Day after tomorrow, 16 August, Thursday

    Time Temperature Precipitation Wind Pressure Humidity
    00:00 +23°C° 0 mm 2 mps 693 mmHg 70%
    01:00 +21°C° 0 mm 2 mps 692 mmHg 75%
    02:00 +21°C° 0 mm 1 mps 692 mmHg 78%
    03:00 +21°C° 0 mm 1 mps 692 mmHg 82%
    04:00 +20°C° 0 mm 1 mps 692 mmHg 86%
    05:00 +20°C° 0 mm 1 mps 692 mmHg 85%
    06:00 +20°C° 0 mm 1 mps 692 mmHg 85%
    07:00 +20°C° 0 mm 1 mps 693 mmHg 84%
    08:00 +23°C° 0 mm 2 mps 693 mmHg 70%
    09:00 +26°C° 0 mm 2 mps 694 mmHg 56%
    10:00 +29°C° 0 mm 2 mps 695 mmHg 42%
    11:00 +31°C° 0 mm 2 mps 694 mmHg 37%
    12:00 +34°C° 0 mm 2 mps 694 mmHg 31%
    13:00 +36°C° 0 mm 2 mps 693 mmHg 26%
    14:00 +36°C° 0 mm 2 mps 693 mmHg 26%
    15:00 +36°C° 0 mm 2 mps 692 mmHg 27%
    16:00 +35°C° 0 mm 2 mps 691 mmHg 27%
    17:00 +34°C° 0 mm 3 mps 691 mmHg 30%
    18:00 +31°C° 0 mm 3 mps 692 mmHg 34%
    19:00 +29°C° 0 mm 3 mps 692 mmHg 38%
    20:00 +27°C° 0 mm 3 mps 692 mmHg 45%
    21:00 +26°C° 0 mm 2 mps 693 mmHg 52%
    22:00 +24°C° 0 mm 2 mps 693 mmHg 60%
    23:00 +23°C° 0 mm 2 mps 693 mmHg 65%

    17 August, Friday

    Time Temperature Precipitation Wind Pressure Humidity
    00:00 +21°C° 0 mm 2 mps 693 mmHg 70%
    01:00 +20°C° 0 mm 2 mps 693 mmHg 75%
    02:00 +20°C° 0 mm 2 mps 692 mmHg 78%
    03:00 +20°C° 0 mm 1 mps 692 mmHg 82%
    04:00 +19°C° 0 mm 1 mps 691 mmHg 85%
    05:00 +19°C° 0 mm 1 mps 692 mmHg 84%
    06:00 +19°C° 0 mm 1 mps 692 mmHg 83%
    07:00 +19°C° 0 mm 1 mps 693 mmHg 82%
    08:00 +23°C° 0 mm 1 mps 693 mmHg 66%
    09:00 +26°C° 0 mm 2 mps 694 mmHg 50%
    10:00 +30°C° 0 mm 2 mps 695 mmHg 33%
    11:00 +32°C° 0 mm 2 mps 694 mmHg 30%
    12:00 +35°C° 0 mm 2 mps 693 mmHg 26%
    13:00 +36°C° 0 mm 2 mps 692 mmHg 22%
    14:00 +36°C° 0 mm 2 mps 692 mmHg 22%
    15:00 +36°C° 0 mm 2 mps 691 mmHg 22%
    16:00 +36°C° 0 mm 2 mps 690 mmHg 22%
    17:00 +34°C° 0 mm 3 mps 691 mmHg 26%
    18:00 +31°C° 0 mm 3 mps 691 mmHg 30%
    19:00 +29°C° 0 mm 3 mps 691 mmHg 34%
    20:00 +27°C° 0 mm 2 mps 692 mmHg 41%
    21:00 +25°C° 0 mm 2 mps 692 mmHg 49%
    22:00 +24°C° 0 mm 2 mps 692 mmHg 56%
    23:00 +23°C° 0 mm 2 mps 692 mmHg 61%

    18 August, Saturday

    Time Temperature Precipitation Wind Pressure Humidity
    00:00 +21°C° 0 mm 2 mps 691 mmHg 67%
    01:00 +20°C° 0 mm 2 mps 691 mmHg 72%
    02:00 +19°C° 0 mm 2 mps 691 mmHg 76%
    03:00 +19°C° 0 mm 2 mps 690 mmHg 81%
    04:00 +19°C° 0 mm 1 mps 690 mmHg 85%
    05:00 +19°C° 0 mm 1 mps 691 mmHg 84%
    06:00 +19°C° 0 mm 1 mps 691 mmHg 83%
    07:00 +19°C° 0 mm 1 mps 692 mmHg 82%
    08:00 +23°C° 0 mm 1 mps 692 mmHg 67%
    09:00 +26°C° 0 mm 2 mps 693 mmHg 52%
    10:00 +29°C° 0 mm 2 mps 694 mmHg 37%
    11:00 +31°C° 0 mm 2 mps 693 mmHg 32%
    12:00 +34°C° 0 mm 2 mps 692 mmHg 28%
    13:00 +36°C° 0 mm 2 mps 692 mmHg 24%
    14:00 +36°C° 0 mm 2 mps 691 mmHg 24%
    15:00 +35°C° 0 mm 2 mps 691 mmHg 24%
    16:00 +35°C° 0 mm 2 mps 690 mmHg 24%
    17:00 +32°C° 0 mm 2 mps 691 mmHg 27%
    18:00 +30°C° 0 mm 3 mps 691 mmHg 31%
    19:00 +29°C° 0 mm 3 mps 691 mmHg 35%
    20:00 +27°C° 0 mm 2 mps 692 mmHg 42%
    21:00 +25°C° 0 mm 2 mps 692 mmHg 49%
    22:00 +24°C° 0 mm 2 mps 692 mmHg 56%
    23:00 +23°C° 0 mm 2 mps 692 mmHg 61%

    19 August, Sunday

    Time Temperature Precipitation Wind Pressure Humidity
    00:00 +21°C° 0 mm 2 mps 692 mmHg 66%
    01:00 +20°C° 0 mm 2 mps 691 mmHg 71%
    02:00 +19°C° 0 mm 2 mps 691 mmHg 75%
    03:00 +19°C° 0 mm 2 mps 691 mmHg 79%
    04:00 +18°C° 0 mm 2 mps 690 mmHg 83%
    05:00 +18°C° 0 mm 2 mps 691 mmHg 83%
    06:00 +18°C° 0 mm 2 mps 692 mmHg 83%
    07:00 +18°C° 0 mm 2 mps 692 mmHg 83%
    08:00 +21°C° 0 mm 2 mps 693 mmHg 70%
    09:00 +24°C° 0 mm 2 mps 693 mmHg 58%
    10:00 +27°C° 0 mm 2 mps 694 mmHg 45%
    11:00 +29°C° 0 mm 2 mps 694 mmHg 40%
    12:00 +30°C° 0 mm 3 mps 693 mmHg 36%
    13:00 +33°C° 0 mm 3 mps 693 mmHg 31%
    14:00 +33°C° 0 mm 3 mps 692 mmHg 31%
    15:00 +33°C° 0 mm 3 mps 692 mmHg 31%
    16:00 +33°C° 0 mm 3 mps 691 mmHg 31%
    17:00 +30°C° 0 mm 3 mps 691 mmHg 36%
    18:00 +28°C° 0 mm 3 mps 692 mmHg 41%
    19:00 +26°C° 0 mm 3 mps 692 mmHg 46%
    20:00 +25°C° 0 mm 3 mps 692 mmHg 52%
    21:00 +24°C° 0 mm 3 mps 693 mmHg 58%
    22:00 +21°C° 0 mm 2 mps 693 mmHg 64%
    23:00 +20°C° 0 mm 2 mps 693 mmHg 69%
    Show more